Weather in Karmadon

Russia / Republic of North Ossetia — Alania     42°50′26″N   44°30′26″E
temp.,
°C
wind,
m/s
gust,
m/s
humid.,
%
clouds,
%
prec.,
mm/h
press.,
hPa
HPBL,
m
7 march, sun
sun700:00−9ssw6566100 0.0 101764
03:00−10ssw4476100 0.0 101832
06:00−14nw129746 1.1 102179
09:00−10wsw249352 1.6 1022305
12:00−8wsw258741 0.4 1021665
15:00−8sw348556 0.8 1020594
18:00−12ssw449154 0.1 102253
21:00−13ssw448353 0.1 102348
8 march, mon
mon800:00−11ssw557414 0.0 102265
03:00−12ssw558319 0.0 102269
06:00−13ssw558553 0.1 102165
09:00−9s458768 0.2 1019243
12:00−8s2488100 0.3 1017391
15:00−8ssw2491100 0.8 1016451
18:00−12sw2397100 0.3 101767
21:00−15sw238781 0.4 101921
9 march, tue
tue900:00−16ssw227918 0.0 101821
03:00−17ssw33759 0.0 101821
06:00−17sw226253 0.0 101821
09:00−12wsw125838 0.0 1018217
12:00−10wsw23730 0.0 1017669
15:00−10wsw23737 0.3 1016790
18:00−16sw22909 0.2 101924
21:00−17sw33726 0.2 102222
10 march, wed
wed1000:00−18sw22610 0.0 102321
03:00−18sw22662 0.2 102420
06:00−18sw226110 0.1 102520
09:00−13sw23665 0.1 1024245
12:00−11sw247763 0.1 1021477
15:00−10ssw247661 0.3 1020554
18:00−14ssw4594100 0.2 1020121
21:00−14ssw6688100 0.3 1020138
11 march, thu
thu1100:00−13ssw6786100 0.4 1019183
03:00−13ssw5689100 0.8 1018157
06:00−15ssw4592100 0.3 101797
09:00−12s249598 0.5 1016236
12:00−11s149499 0.8 1013365
15:00−12ene1495100 2.4 1012404
18:00−15s0399100 1.9 1015165
21:00−15ssw1398100 2.8 1017110